Flag for Turkey Weather past 2 weeks in Konya, Turkey

Now
93 °F

Passing clouds.


Feels Like: 89 °F
Forecast: 64 / 90 °F
Wind: 10 mph from South

Location: Konya Airport

Current Time: Jul 24, 2014 at 4:52:52 PM

Latest Report: Jul 24, 2014 at 3:50 PM


Visibility: N/A

Pressure: 29.77 "Hg

Humidity: 8%

Dew point: 25 °F

Location of KonyaLocation

Historic Weather in Konya — Graph

°F

Konya temperature yesterday

Maximum temperature yesterday: 93 °F (at 3:50 PM)
Minimum temperature yesterday: 63 °F (at 4:50 AM)
Average temperature yesterday: 81 °F

Past Weeks' High & Low Weather Summary

 TemperatureHumidityPressure
High97 °F (Jul 11, 2:50 PM)68% (Jul 19, 5:50 AM)29.98 "Hg (Jul 19, 5:50 AM)
Low61 °F (Jul 17, 5:50 AM)8% (Jul 12, 12:50 PM)29.77 "Hg (Jul 16, 2:50 PM)
Average79 °F32%29.88 "Hg
* Reported Jul 9 3:50 PM — Jul 24 2:50 PM, Konya, Weather by CustomWeather, © 2014

Note: Actual official high and low records may vary slightly from our data, if they occured in-between our weather recording intervals... More about our weather records

Advertising

Konya weather history for previous 24 hours

 ConditionsComfort  
Time TempWeatherWind HumidityBarometerVisibility
2:50 PM
Jul 24
93 °FPassing clouds.10 mph11%29.77 "HgN/A
1:50 PM91 °FSunny.2 mph15%29.80 "Hg10 mi
12:50 PM90 °FPassing clouds.7 mph16%29.80 "HgN/A
11:50 AM88 °FSunny.6 mph17%29.83 "Hg10 mi
10:50 AM84 °FSunny.1 mph22%29.86 "Hg10 mi
9:50 AM81 °FSunny.2 mph30%29.86 "Hg10 mi
8:50 AM79 °FPassing clouds.3 mph30%29.86 "HgN/A
7:50 AM77 °FSunny.No wind30%29.86 "Hg10 mi
6:50 AM70 °FSunny.No wind43%29.86 "Hg10 mi
5:50 AM63 °FClear.No wind52%29.86 "Hg10 mi
4:50 AM66 °FClear.No wind49%29.86 "Hg10 mi
3:50 AM70 °FPassing clouds.5 mph43%29.86 "HgN/A
2:50 AM70 °FPassing clouds.7 mph40%29.86 "HgN/A
1:50 AM72 °FClear.3 mph41%29.86 "Hg10 mi
12:50 AM73 °FClear.1 mph36%29.89 "Hg10 mi
11:50 PM
Jul 23
79 °FClear.5 mph30%29.86 "Hg10 mi
10:50 PM81 °FClear.8 mph26%29.86 "Hg10 mi
9:50 PM82 °FClear.12 mph26%29.86 "Hg10 mi
8:50 PM84 °FSunny.12 mph25%29.86 "Hg10 mi
7:50 PM88 °FSunny.14 mph24%29.83 "Hg10 mi
6:50 PM91 °FPassing clouds.10 mph20%29.83 "HgN/A
5:50 PM93 °FPassing clouds.8 mph16%29.83 "HgN/A
4:50 PM93 °FPassing clouds.3 mph16%29.83 "HgN/A
Weather by CustomWeather, © 2014

See weather overviewHow to use our weather pages